FENGYUN 1C DEB, 32218

Orbit data source: Space-Track

FENGYUN 1C DEB, 32218 is space debris in SSO originally from a launch on Mon, 10 May 1999 UTC launched from the Taiyaun Space Center, China (TSC). Fengyun 1C debris stems from the Chinese weather satellite Fengyun-1C, which was intentionally destroyed by a Chinese anti-satellite missile in 2007. This event dramatically increased the amount of space debris, with thousands of trackable fragments posing hazards to satellites and human spaceflight. The Fengyun 1C debris cloud has become a focal point in discussions about space sustainability and the need for international regulations to prevent the creation of new debris.

Loading next visibility...
Identifier
32218, 1999-025CVQ
Orbit
SSO
Country
Flag of CNCN / PRC
Related business
Manufacturer
Unknown
Mission
Spacecraft
Bus & Motor
Unknown
Mass
Unknown
Launch date (UTC)
1999-05-10 (27 years ago)
Launch vehicle
Unknown
Launch site
Taiyaun Space Center, China (TSC)
Object type
Payload
Rocket body
Debris
Shape & HBR
Unknown shape, 0.1 m
Radar Cross Section
Small (<0.1 m²)

Expand to show TLE details & history
Last TLE update: 2 days ago

TLE from 2 days ago
0 FENGYUN 1C DEB
1 32218U 99025CVQ 26255.55568128  .00002268  00000-0  49751-3 0  9998
2 32218  98.7905 109.7808 0059581 313.7765  75.4793 14.57615348  2055
Epoch: 2026-09-12T13:20Z
TLE epoch observation values (Epoch: 2026-09-12T13:20:10.862Z)
Latitude
29.58254°
Longitude
-86.83645°
Altitude
694.261 km
Speed
7.517 km/s
True Right ascension
06h 59m 05s
True Declination
29° 26' 02"
Sunlit
Object was in daylight at epoch
Visualization orbit readout
Latitude
Unknown
Longitude
Unknown
Altitude
Unknown
Speed
Unknown
Apparent Right ascension
Unknown
Apparent Declination
Unknown
Sunlit
N/A
Visualization observer readout
Local Sidereal Time
22:16:07
Azimuth
Unknown
Elevation
Unknown
Doppler factor
Unknown
Orbital elements
Apogee altitude
740.157 km
Perigee altitude
655.836 km
Semi-major axis
7,076.134 km
Eccentricity
0.00596
Inclination
98.7905°
RAAN
109.7808°
Arg. of periapsis
313.7765°
True anomaly
76.14146°
Mean anomaly
75.4793°
Eccentric anomaly
75.81026°
Mean motion
3.64627 °/min
Orbital period
98.73 mins
BSTAR
0.00049751
Loading maneuver chart data...
Computing Atmospheric mass density...
Loading historical data...
Loading historical data...
Loading historical data...
Loading historical data...
Loading historical data...
Loading historical data...
Loading historical data...

Documentation

Showing up to 5 results
|